CZ-6A DEB, 54621

Orbit data source: Space-Track

CZ-6A DEB, 54621 is space debris in SSO originally from a launch on Fri, 11 Nov 2022 UTC launched from the Taiyaun Space Center, China (TSC). Debris objects in space refer to the collection of defunct objects orbiting the Earth. Examples of debris include non-operational satellites, rocket bodies, and fragments generated from explosions, collisions, or faulty payload assembly.

Loading next visibility...
Identifier
54621, 2022-151NX
Orbit
SSO
Country
Flag of CNCN / PRC
Related business
Manufacturer
SAST
Mission
Spacecraft
Bus & Motor
Unknown
Mass
Unknown
Launch date (UTC)
2022-11-11 (3 years ago)
Launch vehicle
Unknown
Launch site
Taiyaun Space Center, China (TSC)
Object type
Payload
Rocket body
Debris
Shape & HBR
Unknown shape, 0.1 m
Radar Cross Section
Small (<0.1 m²)

Expand to show TLE details & history
Last TLE update: 10 hours ago

TLE from 10 hours ago
0 CZ-6A DEB
1 54621U 22151NX  25355.53737714  .00000663  00000-0  40340-3 0  9995
2 54621  98.8365 347.5375 0059643 121.5125 239.1890 14.08661708158442
Epoch: 2025-12-21T12:53Z
TLE epoch observation values (Epoch: 2025-12-21T12:53:49.384Z)
Latitude
-0.00007°
Longitude
63.73334°
Altitude
889.168 km
Speed
7.396 km/s
True Right ascension
23h 10m 09s
True Declination
0° 00' 00"
Sunlit
Object was in daylight at epoch
Visualization orbit readout
Latitude
Unknown
Longitude
Unknown
Altitude
Unknown
Speed
Unknown
Apparent Right ascension
Unknown
Apparent Declination
Unknown
Sunlit
N/A
Visualization observer readout
Local Sidereal Time
21:34:20
Azimuth
Unknown
Elevation
Unknown
Doppler factor
Unknown
Orbital elements
Apogee altitude
904.312 km
Perigee altitude
817.957 km
Semi-major axis
7,239.272 km
Eccentricity
0.00596
Inclination
98.8365°
RAAN
347.5375°
Arg. of periapsis
121.5125°
True anomaly
238.60425°
Mean anomaly
239.189°
Eccentric anomaly
238.8964°
Mean motion
3.52372 °/min
Orbital period
102.16 mins
BSTAR
0.0004034
Loading maneuver chart data...
Computing Atmospheric mass density...
Loading historical data...
Loading historical data...
Loading historical data...
Loading historical data...
Loading historical data...
Loading historical data...
Loading historical data...

Documentation

Showing up to 5 results
|